Weather in Petropavlovsk

Russia / Sakha (Yakutia) Republic     60°22′10″N   134°27′25″E
temp.,
°C
wind,
m/s
gust,
m/s
humid.,
%
clouds,
%
prec.,
mm/h
press.,
hPa
HPBL,
m
25 june, sat
sat2500:00+15wsw11725 0.0 100010
03:00+13wnw11865 0.0 100110
06:00+18nnw11714 0.0 1001205
09:00+24n22480 0.0 1001760
12:00+28nne23290 0.0 10011909
15:00+28nne22250 0.0 10002254
18:00+27nne12410 0.0 1000914
21:00+19nne11680 0.0 100111
26 june, sun
sun2600:00+16e11690 0.0 100211
03:00+14nnw00720 0.0 100211
06:00+19ese11600 0.0 1003106
09:00+26sse12400 0.0 1002635
12:00+30sse12300 0.0 10002155
15:00+30w03291 0.0 9992820
18:00+29nw024357 0.0 9981206
21:00+21sse22697 0.0 99931
27 june, mon
mon2700:00+20s226348 0.0 99834
03:00+16s22742 0.0 99913
06:00+21s2365100 0.0 999164
09:00+27ssw354435 0.0 998860
12:00+28sw4543100 0.0 9981253
15:00+30wsw353313 0.0 9962517
18:00+22sw61163100 0.2 999690
21:00+16se2394100 0.5 99963
28 june, tue
tue2800:00+15s239588 0.0 99973
03:00+14ssw229792 0.3 99951
06:00+18ssw259048 0.1 999233
09:00+24wsw466122 0.2 9991111
12:00+21w367639 0.8 1000495
15:00+27w374546 0.8 9982145
18:00+24nnw136334 0.0 998159
21:00+19ne00814 0.1 100011
29 june, wed
wed2900:00+15wsw11962 2.0 100211
03:00+15w1196100 2.0 100211
06:00+18wsw0190100 0.0 1003141
09:00+24wnw126097 0.0 1004765
12:00+27nw134620 0.0 10031720
15:00+29nnw123945 0.0 10022318
18:00+26n1155100 0.0 1002268
21:00+22ese116797 0.0 100411